Location: Eaton Estates
(41.3089°N, 82.0057°W)
Time: 14:45:11
(UTC+00:00)

Cosmos 1626 - Pass Details

Date: 17 June 2021
Orbit: 489 x 493 km, 82.5° (Epoch: 01 August)

Event Time Altitude Azimuth Distance (km) Brightness Sun altitude
Exits shadow 03:45:09 22° 239° (WSW) 1,107 3.8 -21.0°
Maximum altitude 03:46:44 32° 283° (WNW) 872 3.6 -21.1°
Drops below altitude 10° 03:50:05 10° 348° (NNW) 1,694 5.9 -21.4°
Sets 03:52:22 0° 358° (N) 2,582 6.9 -21.5°
